Regional Weather Roundup
Issued by NWS

Home | Current Version | Previous Version | Text Only | Print | Product List | Glossary Off
Versions: 1 2 3 4 5 6 7 8 9 10 11 12 13 14 15 16 17 18 19 20 21 22 23 24 25 26 27 28 29 30 31 32 33 34 35 36 37 38 39 40 41 42 43 44 45 46 47 48 49 50

000
ASUS43 KIND 100509
RWRIN

WEATHER ROUNDUP FOR INDIANA
NATIONAL WEATHER SERVICE INDIANAPOLIS IN
1200 AM EST WED FEB 10 2016

NOTE: "FAIR" INDICATES FEW OR NO CLOUDS BELOW 12,000 FEET WITH NO
SIGNIFICANT WEATHER AND/OR OBSTRUCTIONS TO VISIBILITY.

* - STATION DOES NOT REPORT WEATHER SUCH AS PRECIPITATION OR FOG.

+ - STATION NOT QUALITY CONTROLLED BY THE NATIONAL WEATHER SERVICE.
    USE DATA WITH CAUTION...ESPECIALLY DEWPOINT AND RELATIVE
    HUMIDITY OBSERVATIONS.

INZ001>003-010>013-019-020-100600-
NORTHWEST INDIANA

CITY           SKY/WX    TMP DP  RH WIND       PRES   REMARKS
GARY /AIRPORT/ FLURRIES  17   8  65 W13G18    29.95S WCI   4
KNOX *+        CLOUDY    18  10  73 W16G22    29.90F WCI   3
LA PORTE +     LGT SNOW  19  17  93 W9G21     29.89S VSB 1   WCI   7
MICHIGAN CITY+ LGT SNOW  19  16  86 NW9G18    29.90S WCI   9
MONTICELLO +   LGT SNOW  16   9  75 W12       29.93S WCI   3
RENSSELAER +   FLURRIES  18   9  68 W13G20    29.94S WCI   4
VALPARAISO     LGT SNOW  15  11  83 W16       29.91S WCI  -1

$$

LMZ046-743>745-100600-
SOUTHERN LAKE MICHIGAN

STATION/POSITION TIME  TEMP    WIND        PRES    WAVE
                       AIR SEA DIR/SP/G            HT
                 (UTC) (F)     (DEG/KT/KT) (MB)    (FT)
BURNS HARBOR     0422   19     300/ 20/ 23 1013.2F
MICHIGAN CITY    0400   19     270/ 28/ 31   N/A

$$

INZ004-005-014>016-021>024-100600-
NORTH CENTRAL INDIANA

CITY           SKY/WX    TMP DP  RH WIND       PRES   REMARKS
GOSHEN         LGT SNOW  18  14  84 W15       29.83F FOG     WCI   4
LOGANSPORT +   LGT SNOW  18  10  73 W12       29.92S WCI   5
PERU/GRISSOM   FLURRIES  16  12  84 W15       29.88S WCI   1
ROCHESTER +    LGT SNOW  19  10  68 W13       29.89S WCI   7
SOUTH BEND     LGT SNOW  19  16  88 W16       29.85F FOG     WCI   4
WARSAW +       FLURRIES  18  12  79 W15       29.86S WCI   3

$$

INZ006>009-017-018-025>027-100600-
NORTHEAST INDIANA

CITY           SKY/WX    TMP DP  RH WIND       PRES   REMARKS
ANGOLA *+      CLOUDY    19  16  86 W9        29.78S WCI   9
AUBURN +       FLURRIES  19  14  79 W10G17    29.82S WCI   8
FORT WAYNE     FLURRIES  19  12  74 W18       29.85S WCI   4
HUNTINGTON +   FLURRIES  16   8  73 W16       29.86F WCI   0

$$

INZ028-029-035-036-043>045-051>053-100600-
WEST CENTRAL INDIANA

CITY           SKY/WX    TMP DP  RH WIND       PRES   REMARKS
GREENCASTLE +  LGT SNOW  16   9  73 W6        29.96S WCI   7
LAFAYETTE      CLOUDY    15   9  76 W14       29.95F WCI   0
TERRE HAUTE    LGT SNOW  16  10  77 W10       30.01S WCI   4

$$

INZ030>032-037>040-046>048-054>057-064-065-100600-
CENTRAL INDIANA

CITY           SKY/WX    TMP DP  RH WIND       PRES   REMARKS
FISHERS *+     MOCLDY    12  10  92 W8        29.93F WCI   1
FRANKFORT +    FLURRIES  16   7  67 W14       29.94S WCI   2
GREENWOOD *+   CLOUDY    16  14  93 W7        29.95S WCI   6
INDIANAPOLIS   LGT SNOW  15  10  80 W10       29.93F WCI   2
-EAGLE CREEK   CLOUDY    15   9  76 W10       29.93F WCI   2
KOKOMO *+      CLOUDY    16   9  73 W13       29.90S WCI   2
MARION +       CLOUDY    15   6  67 W14       29.90S WCI   1
MT COMFORT *+  CLEAR     12   9  85 W8        29.93S WCI   1
SHELBYVILLE    CLOUDY    16   8  71 W12       29.94S WCI   3
ZIONSVILLE +   FLURRIES  12   8  81 W9        29.93S WCI   0

$$

INZ033-034-041-042-049-050-058-059-100600-
EAST CENTRAL INDIANA

CITY           SKY/WX    TMP DP  RH WIND       PRES   REMARKS
MUNCIE         LGT SNOW  16  10  77 W10       29.89S WCI   4

$$

INZ060-061-067>069-081>083-085>088-100600-
SOUTHWEST INDIANA

CITY           SKY/WX    TMP DP  RH WIND       PRES   REMARKS
EVANSVILLE     FLURRIES  21  12  68 W6        30.08S WCI  13
HUNTINGBURG *+ CLOUDY    19  10  68 NW14      30.04S WCI   6
WASHINGTON +   FLURRIES  18  11  73 NW9       30.04S WCI   7

$$

INZ062-063-066-070>080-084-089>092-100600-
SOUTH CENTRAL AND SOUTHEAST INDIANA

CITY           SKY/WX    TMP DP  RH WIND       PRES   REMARKS
BEDFORD +      LGT SNOW  18  16  93 W7        29.99F WCI   8
BLOOMINGTON    LGT SNOW  17  12  80 W10       29.97S WCI   5
MADISON *+     CLOUDY    19  10  68 W8        29.98S WCI   9
NORTH VERNON + CLOUDY    18  10  73 CALM      29.97R
SEYMOUR +      CLOUDY    19  14  79 W8        29.99S WCI   9

$$




USA.gov is the U.S. government's official web portal to all federal, state and local government web resources and services.